Location: Berlin
(52.5171°N, 13.4421°E)
Time: 05:32:55
(UTC+02:00)

ISS - Visible Passes

Search period start: 28 July 2021 00:00
Search period end: 07 August 2021 00:00
Orbit: 419 x 421 km, 51.6° (Epoch: 28 July)

Date Brightness Start Highest point End Pass type
(mag) Time Alt. Az. Time Alt. Az. Time Alt. Az.
28 Jul -2.2 22:23:49 10° W 22:26:36 24° SSW 22:28:41 14° SSE visible
30 Jul -1.3 22:27:08 10° WSW 22:28:30 12° SW 22:29:52 10° SSW visible
31 Jul -1.6 21:39:14 10° W 21:41:31 17° SW 21:43:48 10° S visible
